Location: Fort McMurray
(56.7330°N, 111.3830°W)
Time: 02:08:58
(UTC-06:00)

Envisat - Visible Passes

Search period start: 22 August 2018 00:00
Search period end: 01 September 2018 00:00
Orbit: 764 x 766 km, 98.2° (Epoch: 21 August)

Date Brightness Start Highest point End Pass type
(mag) Time Alt. Az. Time Alt. Az. Time Alt. Az.
22 Aug 5.9 22:11:23 10° WSW 22:13:52 14° W 22:16:22 10° NW visible
23 Aug 5.4 21:32:29 10° SW 21:36:36 24° W 21:40:44 10° NW visible
25 Aug 5.7 21:59:23 10° WSW 22:02:31 16° W 22:05:40 10° NW visible
26 Aug 5.1 21:20:55 10° SSW 21:25:18 29° W 21:29:43 10° NNW visible
27 Aug 6.2 22:27:54 10° W 22:28:33 10° WNW 22:29:12 10° WNW visible
28 Aug 5.6 21:47:34 10° SW 21:51:11 19° W 21:54:49 10° NW visible
29 Aug 4.8 21:09:25 10° SSW 21:14:01 34° W 21:18:40 10° NNW visible
30 Aug 5.9 22:15:01 10° WSW 22:17:10 13° W 22:19:19 10° NW visible
31 Aug 5.5 21:35:52 10° SW 21:39:52 23° W 21:43:53 10° NW visible
